Вернуться в каталог

STARLINK-32199

АктивенСвязьVLEO
NORAD 60320·PAYLOAD·🇺🇸 United States

Запущен Jul 28, 2024 с Vandenberg Space Force Base

Loading…

Ближайшие Пролёты (ближайшие 24 часа)

TLE

СвежийSource: CelesTrak SupGP

Эпоха: Sep 14, 2026, 21:26 UTC

1 60320C 24133V   26257.89354167 -.00034980  00000+0 -10337-2 0  2577
2 60320  53.1567 135.9232 0001390  87.5139 170.0723 15.34400636    14

Отслеживайте STARLINK-32199 в реальном времени с AllMySat

Download on the App Store